GW3049 Weather Reports


Display with metric or nautical units.
time (UTC)temp
F
wind
direction
speed
MPH
gust
MPH
rain 1hr
in
rain 24hr
in
rain mn
in
humidity
%
barometer
mb
20260505111705 69 0.0 0.0 0.00 0.00 0.00 58 1006.3
20260505111204 68 0.0 0.0 0.00 0.00 0.00 59 1006.4
20260505110705 68 0.0 0.0 0.00 0.00 0.00 59 1006.4
20260505110206 68 0.0 0.0 0.00 0.00 0.00 60 1006.5
20260505102205 67 0.0 0.0 0.00 0.00 0.00 66 1007.0
20260505101705 67 0.0 0.0 0.00 0.00 0.00 66 1007.0
20260505101204 67 0.0 0.0 0.00 0.00 0.00 67 1007.1
20260505100705 67 0.0 0.0 0.00 0.00 0.00 67 1007.1
20260505100204 67 0.0 0.0 0.00 0.00 0.00 67 1007.2
20260505095704 67 0.0 0.0 0.00 0.00 0.00 67 1007.2
20260505095205 66 0.0 0.0 0.00 0.00 0.00 68 1007.2
20260505094705 66 0.0 0.0 0.00 0.00 0.00 68 1007.2
20260505094205 66 0.0 0.0 0.00 0.00 0.00 68 1007.3
20260505093704 66 0.0 0.0 0.00 0.00 0.00 68 1007.3
20260505092705 65 0.0 0.0 0.00 0.00 0.00 68 1007.5
20260505092205 65 0.0 0.0 0.00 0.00 0.00 68 1007.6
20260505091705 65 0.0 0.0 0.00 0.00 0.00 68 1007.6
20260505091205 65 0.0 0.0 0.00 0.00 0.00 68 1007.6
20260505090705 65 0.0 0.0 0.00 0.00 0.00 68 1007.6
20260505090206 65 0.0 0.0 0.00 0.00 0.00 69 1007.8
20260505085705 65 0.0 0.0 0.00 0.00 0.00 69 1007.8
20260505085206 65 0.0 0.0 0.00 0.00 0.00 69 1007.8
20260505084705 65 0.0 0.0 0.00 0.00 0.00 69 1007.8
20260505084205 64 0.0 0.0 0.00 0.00 0.00 69 1007.9
20260505083205 64 0.0 0.0 0.00 0.00 0.00 71 1008.0
20260505082704 64 0.0 0.0 0.00 0.00 0.00 71 1008.0
20260505082205 64 0.0 0.0 0.00 0.00 0.00 71 1008.0
20260505081706 64 0.0 0.0 0.00 0.00 0.00 71 1008.0
20260505081205 63 0.0 0.0 0.00 0.00 0.00 72 1008.0
20260505080706 63 0.0 0.0 0.00 0.00 0.00 72 1008.0
20260505080204 63 0.0 0.0 0.00 0.00 0.00 73 1008.2
20260505075705 63 0.0 0.0 0.00 0.00 0.00 73 1008.2
20260505075206 62 0.0 0.0 0.00 0.00 0.00 74 1008.2
20260505074704 62 0.0 0.0 0.00 0.00 0.00 74 1008.2
20260505074205 62 0.0 0.0 0.00 0.00 0.00 75 1008.2
20260505073704 62 0.0 0.0 0.00 0.00 0.00 75 1008.2
20260505073205 61 0.0 0.0 0.00 0.00 0.00 75 1008.3
20260505072205 61 0.0 0.0 0.00 0.00 0.00 76 1008.4
20260505071707 61 0.0 0.0 0.00 0.00 0.00 76 1008.4
20260505071205 60 0.0 0.0 0.00 0.00 0.00 77 1008.6
20260505070704 60 0.0 0.0 0.00 0.00 0.00 77 1008.6
20260505070204 60 0.0 0.0 0.00 0.00 0.00 78 1008.7
20260505065705 60 0.0 0.0 0.00 0.00 0.00 78 1008.7
20260505065206 60 0.0 0.0 0.00 0.00 0.00 79 1008.6
20260505064705 60 0.0 0.0 0.00 0.00 0.00 79 1008.6
20260505064205 59 0.0 0.0 0.00 0.00 0.00 82 1008.7
20260505063706 59 0.0 0.0 0.00 0.00 0.00 82 1008.7
20260505063204 59 0.0 0.0 0.00 0.00 0.00 83 1008.8
20260505062205 58 0.0 0.0 0.00 0.00 0.00 84 1008.9
20260505061705 58 0.0 0.0 0.00 0.00 0.00 84 1008.9
20260505060705 58 0.0 0.0 0.00 0.00 0.00 85 1009.0
20260505060205 57 0.0 0.0 0.00 0.00 0.00 86 1009.0
20260505055705 57 0.0 0.0 0.00 0.00 0.00 86 1009.0
20260505054704 57 0.0 0.0 0.00 0.00 0.00 88 1009.1
20260505054205 56 0.0 0.0 0.00 0.00 0.00 89 1009.1
20260505053706 56 0.0 0.0 0.00 0.00 0.00 89 1009.1
20260505053205 55 0.0 0.0 0.00 0.00 0.00 91 1009.1
20260505052705 55 0.0 0.0 0.00 0.00 0.00 91 1009.1
20260505052206 55 0.0 0.0 0.00 0.00 0.00 91 1009.1
20260505051705 55 0.0 0.0 0.00 0.00 0.00 91 1009.1
20260505051205 55 0.0 0.0 0.00 0.00 0.00 92 1009.1
20260505050706 55 0.0 0.0 0.00 0.00 0.00 92 1009.1
20260505041704 54 0.0 0.0 0.00 0.00 0.00 88 1009.3
20260505041205 54 0.0 0.0 0.00 0.00 0.00 87 1009.2
20260505040704 54 0.0 0.0 0.00 0.00 0.00 87 1009.2
20260505040206 55 0.0 0.0 0.00 0.00 0.00 87 1009.3
20260505035705 55 0.0 0.0 0.00 0.00 0.00 87 1009.3
20260505035205 55 0.0 0.0 0.00 0.00 0.00 87 1009.3
20260505034707 55 0.0 0.0 0.00 0.00 0.00 87 1009.3
20260505034204 55 0.0 0.0 0.00 0.00 0.00 87 1009.3
20260505033706 55 0.0 0.0 0.00 0.00 0.00 87 1009.3
20260505033204 55 0.0 0.0 0.00 0.00 0.00 86 1009.4
20260505032206 55 0.0 0.0 0.00 0.00 0.00 85 1009.5
20260505031704 55 0.0 0.0 0.00 0.00 0.00 85 1009.5
20260505031205 55 0.0 0.0 0.00 0.00 0.00 84 1009.6
20260505030706 55 0.0 0.0 0.00 0.00 0.00 84 1009.6
20260505030204 55 0.0 0.0 0.00 0.00 0.00 83 1009.7
20260505025704 55 0.0 0.0 0.00 0.00 0.00 83 1009.7
20260505025206 56 0.0 0.0 0.00 0.00 0.00 82 1009.7
20260505024705 56 0.0 0.0 0.00 0.00 0.00 82 1009.7
20260505024205 56 0.0 0.0 0.00 0.00 0.00 82 1009.7
20260505023204 56 0.0 0.0 0.00 0.00 0.00 82 1009.9
20260505022705 56 0.0 0.0 0.00 0.00 0.00 82 1009.9
20260505022206 56 0.0 0.0 0.00 0.00 0.00 82 1010.1
20260505021705 56 0.0 0.0 0.00 0.00 0.00 82 1010.1
20260505021204 56 0.0 0.0 0.00 0.00 0.00 81 1010.2
20260505020704 56 0.0 0.0 0.00 0.00 0.00 81 1010.2
20260505020205 56 0.0 0.0 0.00 0.00 0.00 81 1010.2
20260505015705 56 0.0 0.0 0.00 0.00 0.00 81 1010.2
20260505014705 56 0.0 0.0 0.00 0.00 0.00 81 1010.3
20260505014205 56 0.0 0.0 0.00 0.00 0.00 81 1010.4
20260505013707 56 0.0 0.0 0.00 0.00 0.00 81 1010.4
20260505013204 57 0.0 0.0 0.00 0.00 0.00 81 1010.6
20260505012206 56 0.0 0.0 0.00 0.00 0.00 81 1010.7
20260505011705 56 0.0 0.0 0.00 0.00 0.00 81 1010.7
20260505010704 57 0.0 0.0 0.00 0.00 0.00 81 1010.8
20260505010204 57 0.0 0.0 0.00 0.00 0.00 81 1010.8
20260505005705 57 0.0 0.0 0.00 0.00 0.00 81 1010.8
20260505005207 57 0.0 0.0 0.00 0.00 0.00 80 1010.7
20260505004705 57 0.0 0.0 0.00 0.00 0.00 80 1010.7
20260505004205 57 0.0 0.0 0.00 0.00 0.00 80 1010.7
20260505003706 57 0.0 0.0 0.00 0.00 0.00 80 1010.7
20260505003204 56 0.0 0.0 0.00 0.00 0.00 80 1010.8
20260505002707 56 0.0 0.0 0.00 0.00 0.00 80 1010.8
20260505002204 57 0.0 0.0 0.00 0.00 0.00 79 1010.8
20260505001705 57 0.0 0.0 0.00 0.00 0.00 79 1010.8
20260504235705 58 0.0 0.0 0.00 0.00 0.00 78 1010.9
20260504234706 58 0.0 0.0 0.00 0.00 0.00 77 1011.0
20260504234205 58 0.0 0.0 0.00 0.00 0.00 77 1011.2
20260504233705 58 0.0 0.0 0.00 0.00 0.00 77 1011.2
20260504233206 58 0.0 0.0 0.00 0.00 0.00 79 1011.4
20260504232705 58 0.0 0.0 0.00 0.00 0.00 79 1011.4
20260504232205 58 0.0 0.0 0.00 0.00 0.00 79 1011.4
20260504231706 58 0.0 0.0 0.00 0.00 0.00 79 1011.4
20260504231205 58 0.0 0.0 0.00 0.00 0.00 79 1011.5
20260504230705 58 0.0 0.0 0.00 0.00 0.00 79 1011.5
20260504230206 58 0.0 0.0 0.00 0.00 0.00 78 1011.5
20260504225705 58 0.0 0.0 0.00 0.00 0.00 78 1011.5
20260504225205 58 0.0 0.0 0.00 0.00 0.00 78 1011.7
20260504224707 58 0.0 0.0 0.00 0.00 0.00 78 1011.7
20260504224205 58 0.0 0.0 0.00 0.00 0.00 78 1011.7
20260504223704 58 0.0 0.0 0.00 0.00 0.00 78 1011.7
20260504222205 58 0.0 0.0 0.00 0.00 0.00 77 1011.6
20260504221704 58 0.0 0.0 0.00 0.00 0.00 77 1011.6
20260504221205 59 0.0 0.0 0.00 0.00 0.00 76 1011.6
20260504220705 59 0.0 0.0 0.00 0.00 0.00 76 1011.6
20260504215204 59 0.0 0.0 0.00 0.00 0.00 75 1011.6
20260504214704 59 0.0 0.0 0.00 0.00 0.00 75 1011.6
20260504214205 60 0.0 0.0 0.00 0.00 0.00 74 1011.7
20260504213705 60 0.0 0.0 0.00 0.00 0.00 74 1011.7
20260504212705 60 0.0 0.0 0.00 0.00 0.00 74 1011.7
20260504212205 60 0.0 0.0 0.00 0.00 0.00 72 1011.8
20260504211706 60 0.0 0.0 0.00 0.00 0.00 72 1011.8
20260504211204 60 0.0 0.0 0.00 0.00 0.00 72 1011.9
20260504210707 60 0.0 0.0 0.00 0.00 0.00 72 1011.9
20260504210204 60 0.0 0.0 0.00 0.00 0.00 70 1011.9
20260504205705 60 0.0 0.0 0.00 0.00 0.00 70 1011.9
20260504205206 60 0.0 0.0 0.00 0.00 0.00 70 1011.9
20260504204705 60 0.0 0.0 0.00 0.00 0.00 70 1011.9
20260504204205 60 0.0 0.0 0.00 0.00 0.00 70 1011.9
20260504203704 60 0.0 0.0 0.00 0.00 0.00 70 1011.9
20260504203205 60 0.0 0.0 0.00 0.00 0.00 69 1011.9
20260504202706 60 0.0 0.0 0.00 0.00 0.00 69 1011.9
20260504202205 61 0.0 0.0 0.00 0.00 0.00 68 1011.9
20260504201704 61 0.0 0.0 0.00 0.00 0.00 68 1011.9
20260504201205 61 0.0 0.0 0.00 0.00 0.00 68 1012.0
20260504195706 61 0.0 0.0 0.00 0.00 0.00 67 1012.0
20260504195205 61 0.0 0.0 0.00 0.00 0.00 67 1012.0
20260504194704 61 0.0 0.0 0.00 0.00 0.00 67 1012.0
20260504193705 61 0.0 0.0 0.00 0.00 0.00 67 1011.9
20260504193205 61 0.0 0.0 0.00 0.00 0.00 66 1011.9
20260504192706 61 0.0 0.0 0.00 0.00 0.00 66 1011.9
20260504191705 62 0.0 0.0 0.00 0.00 0.00 65 1011.8
20260504191206 62 0.0 0.0 0.00 0.00 0.00 66 1011.8
20260504185205 62 0.0 0.0 0.00 0.00 0.00 64 1011.7
20260504184704 62 0.0 0.0 0.00 0.00 0.00 64 1011.7
20260504184207 62 0.0 0.0 0.00 0.00 0.00 63 1011.7
20260504183705 62 0.0 0.0 0.00 0.00 0.00 63 1011.7
20260504182705 63 0.0 0.0 0.00 0.00 0.00 65 1011.6
20260504182205 65 0.0 0.0 0.00 0.00 0.00 56 1011.5
20260504181705 65 0.0 0.0 0.00 0.00 0.00 56 1011.5
20260504180705 65 0.0 0.0 0.00 0.00 0.00 56 1011.5
20260504180205 65 0.0 0.0 0.00 0.00 0.00 56 1011.5
20260504175204 66 0.0 0.0 0.00 0.00 0.00 55 1011.3
20260504174705 66 0.0 0.0 0.00 0.00 0.00 55 1011.3
20260504174205 66 0.0 0.0 0.00 0.00 0.00 55 1011.3
20260504173704 66 0.0 0.0 0.00 0.00 0.00 55 1011.3
20260504173207 66 0.0 0.0 0.00 0.00 0.00 55 1011.2
20260504172704 66 0.0 0.0 0.00 0.00 0.00 55 1011.2
20260504172205 66 0.0 0.0 0.00 0.00 0.00 53 1011.2
20260504171704 66 0.0 0.0 0.00 0.00 0.00 53 1011.2
20260504170204 67 0.0 0.0 0.00 0.00 0.00 52 1011.1
20260504150705 72 0.0 0.0 0.00 0.00 0.00 46 1010.9
20260504150205 72 0.0 0.0 0.00 0.00 0.00 45 1011.0
20260504141205 72 0.0 0.0 0.00 0.00 0.00 43 1011.3
20260504140704 72 0.0 0.0 0.00 0.00 0.00 43 1011.3
20260504130705 71 0.0 0.0 0.00 0.00 0.00 48 1011.7
20260504130206 70 0.0 0.0 0.00 0.00 0.00 49 1011.8
20260504120205 69 0.0 0.0 0.00 0.00 0.00 49 1012.4